Change the Weather History Date:

Sunday, February 24, 2013

  Actual Average Record
Temperature  
Mean Temperature 14 °F -  
Max Temperature 21 °F 22 °F 42 °F (1998)
Min Temperature 8 °F 7 °F -23 °F (2003)
Degree Days  
Heating Degree Days 50    
Moisture  
Dew Point 13 °F    
Average Humidity 90    
Maximum Humidity 100    
Minimum Humidity 79    
Precipitation  
Precipitation 0.00 in - - ()
Sea Level Pressure  
Sea Level Pressure 30.01 in    
Wind  
Wind Speed 5 mph (South)    
Max Wind Speed 15 mph    
Max Gust Speed -    
Visibility 6 miles    
Events Fog , Snow    
Averages and records for this station are not official NWS values.
T = Trace of Precipitation, MM = Missing Value Source: NWS Daily Summary

Daily Weather History Graph

Daily Weather History Graph

Search for Another Location

Airport or City:

Trip Planner

Search our weather history database for the weather conditions in past years. The results will help you decide how hot, cold, wet, or windy it might be!

Date:

Astronomy

Feb. 24, 2013 Rise Set
Actual Time 7:16 AM CST 6:03 PM CST
Civil Twilight 6:44 AM CST 6:35 PM CST
Nautical Twilight 6:09 AM CST 7:11 PM CST
Astronomical Twilight 5:33 AM CST 7:46 PM CST
Moon 5:16 PM CST (2/24) 6:15 AM CST (2/24)
Length of Visible Light 11h 50m
Length of Day
10h 47m
Waxing Gibbous, 99% of the Moon is Illuminated
Feb 24
Waxing Gibbous
Feb 25
Full
Mar 4
Last Quarter
Mar 11
New
Mar 19
First Quarter

Hourly Weather History & Observations

Time (CST) Temp. Windchill Dew Point Humidity Pressure Visibility Wind Dir Wind Speed Gust Speed Precip Events Conditions
12:14 AM 15.8 °F 10.2 °F 14.0 °F 93% 29.96 in 0.8 mi South 3.5 mph - N/A   Overcast
12:35 AM 15.8 °F 8.6 °F 12.2 °F 86% 29.96 in 0.5 mi South 4.6 mph - N/A Fog Light Freezing Fog
12:54 AM 15.8 °F 10.2 °F 12.2 °F 86% 29.96 in 0.8 mi South 3.5 mph - N/A   Overcast
1:14 AM 15.8 °F 10.2 °F 12.2 °F 86% 29.97 in 0.5 mi SSE 3.5 mph - N/A Fog Light Freezing Fog
1:35 AM 15.8 °F 10.2 °F 12.2 °F 86% 29.97 in 0.2 mi South 3.5 mph - N/A Fog Light Freezing Fog
1:54 AM 15.8 °F 8.6 °F 12.2 °F 86% 29.97 in 0.2 mi SSE 4.6 mph - N/A Fog Light Freezing Fog
2:14 AM 14.0 °F 6.5 °F 12.2 °F 93% 29.98 in 0.2 mi South 4.6 mph - N/A Fog Light Freezing Fog
2:35 AM 14.0 °F 6.5 °F 12.2 °F 93% 29.97 in 0.2 mi SSE 4.6 mph - N/A Fog Light Freezing Fog
2:54 AM 14.0 °F 6.5 °F 12.2 °F 93% 29.97 in 0.2 mi SSE 4.6 mph - N/A Fog Light Freezing Fog
3:15 AM 14.0 °F 8.2 °F 12.2 °F 93% 29.97 in 0.2 mi SSE 3.5 mph - N/A Fog Light Freezing Fog
3:35 AM 14.0 °F 6.5 °F 12.2 °F 93% 29.96 in 0.2 mi SE 4.6 mph - N/A Fog Light Freezing Fog
3:54 AM 12.2 °F 6.1 °F 10.4 °F 92% 29.97 in 0.5 mi SSE 3.5 mph - N/A Fog Light Freezing Fog
4:15 AM 12.2 °F - 10.4 °F 92% 29.98 in 0.5 mi Calm Calm - N/A Fog Light Freezing Fog
4:35 AM 12.2 °F 6.1 °F 12.2 °F 100% 29.99 in 0.5 mi South 3.5 mph - N/A Fog Light Freezing Fog
4:54 AM 12.2 °F - 10.4 °F 92% 29.99 in 0.5 mi Calm Calm - N/A Fog Light Freezing Fog
5:15 AM 12.2 °F - 10.4 °F 92% 29.99 in 0.2 mi Calm Calm - N/A Snow Light Snow
5:34 AM 12.2 °F 6.1 °F 10.4 °F 92% 30.00 in 0.5 mi SSW 3.5 mph - N/A Snow Light Snow
5:54 AM 10.4 °F - 10.4 °F 100% 30.00 in 0.5 mi Calm Calm - N/A Fog Light Freezing Fog
6:15 AM 10.4 °F - 8.6 °F 92% 30.01 in 0.5 mi Calm Calm - N/A Fog Light Freezing Fog
6:35 AM 10.4 °F - 8.6 °F 92% 30.01 in 0.5 mi Calm Calm - N/A Fog Light Freezing Fog
7:15 AM 10.4 °F - 6.8 °F 85% 30.01 in 0.5 mi Calm Calm - N/A Fog Light Freezing Fog
7:34 AM 10.4 °F 4.0 °F 6.8 °F 85% 30.01 in 0.2 mi SSE 3.5 mph - N/A Fog Light Freezing Fog
7:54 AM 8.6 °F - 6.8 °F 92% 30.01 in 0.2 mi Calm Calm - N/A Snow Light Snow
8:15 AM 8.6 °F - 6.8 °F 92% 30.01 in 0.2 mi Calm Calm - N/A Fog Light Freezing Fog
8:34 AM 8.6 °F - 6.8 °F 92% 30.01 in 0.2 mi Calm Calm - N/A Fog Light Freezing Fog
8:54 AM 8.6 °F - 6.8 °F 92% 30.01 in 0.8 mi Calm Calm - N/A   Overcast
9:15 AM 8.6 °F - 6.8 °F 92% 30.01 in 10.0 mi Calm Calm - N/A   Scattered Clouds
9:34 AM 8.6 °F - 6.8 °F 92% 30.02 in 10.0 mi Calm Calm - N/A   Clear
9:55 AM 10.4 °F - 6.8 °F 85% 30.02 in 10.0 mi Calm Calm - N/A   Clear
10:14 AM 10.4 °F - 8.6 °F 92% 30.02 in 10.0 mi Calm Calm - N/A   Clear
10:34 AM 12.2 °F - 10.4 °F 92% 30.02 in 10.0 mi Calm Calm - N/A   Clear
10:55 AM 12.2 °F 6.1 °F 10.4 °F 92% 30.03 in 10.0 mi South 3.5 mph - N/A   Clear
11:14 AM 14.0 °F 8.2 °F 12.2 °F 93% 30.03 in 5.0 mi SSW 3.5 mph - N/A   Clear
11:34 AM 14.0 °F 6.5 °F 12.2 °F 93% 30.03 in 7.0 mi SSW 4.6 mph - N/A   Clear
11:55 AM 15.8 °F 7.2 °F 12.2 °F 86% 30.03 in 10.0 mi South 5.8 mph - N/A   Clear
12:14 PM 15.8 °F 4.2 °F 14.0 °F 93% 30.03 in 10.0 mi South 9.2 mph - N/A   Clear
12:34 PM 15.8 °F 3.4 °F 15.8 °F 100% 30.03 in 10.0 mi South 10.4 mph - N/A   Clear
12:55 PM 17.6 °F 6.4 °F 15.8 °F 93% 30.03 in 10.0 mi South 9.2 mph - N/A   Clear
1:14 PM 17.6 °F 5.7 °F 15.8 °F 93% 30.03 in 10.0 mi South 10.4 mph - N/A   Clear
1:35 PM 17.6 °F 5.7 °F 17.6 °F 100% 30.03 in 10.0 mi South 10.4 mph - N/A   Clear
1:55 PM 19.4 °F 8.6 °F 17.6 °F 93% 30.01 in 10.0 mi South 9.2 mph - N/A   Clear
2:14 PM 19.4 °F 7.9 °F 17.6 °F 93% 30.01 in 10.0 mi South 10.4 mph - N/A   Clear
2:35 PM 19.4 °F 7.9 °F 17.6 °F 93% 30.01 in 10.0 mi South 10.4 mph - N/A   Clear
2:55 PM 19.4 °F 7.2 °F 17.6 °F 93% 30.01 in 10.0 mi South 11.5 mph - N/A   Clear
3:14 PM 21.2 °F 8.3 °F 17.6 °F 86% 30.00 in 10.0 mi South 13.8 mph - N/A   Clear
3:35 PM 21.2 °F 7.8 °F 17.6 °F 86% 30.00 in - South 15.0 mph - N/A   Clear
3:54 PM 21.2 °F 8.3 °F 17.6 °F 86% 30.00 in 10.0 mi South 13.8 mph - N/A   Clear
4:14 PM 21.2 °F 7.8 °F 15.8 °F 80% 30.00 in 10.0 mi SSE 15.0 mph - N/A   Clear
4:35 PM 21.2 °F 7.8 °F 15.8 °F 80% 30.00 in 10.0 mi South 15.0 mph - N/A   Clear
4:54 PM 19.4 °F 6.6 °F 15.8 °F 86% 30.01 in 10.0 mi South 12.7 mph - N/A   Clear
5:14 PM 19.4 °F 8.6 °F 15.8 °F 86% 30.01 in 10.0 mi South 9.2 mph - N/A   Clear
5:35 PM 19.4 °F 6.6 °F 14.0 °F 80% 30.02 in 10.0 mi South 12.7 mph - N/A   Clear
5:54 PM 17.6 °F 4.3 °F 12.2 °F 79% 30.02 in 10.0 mi South 12.7 mph - N/A   Clear
6:15 PM 17.6 °F 3.7 °F 14.0 °F 86% 30.03 in 10.0 mi South 13.8 mph - N/A   Clear
6:35 PM 19.4 °F 6.0 °F 14.0 °F 80% 30.03 in 10.0 mi South 13.8 mph - N/A   Clear
6:54 PM 19.4 °F 6.0 °F 15.8 °F 86% 30.03 in 10.0 mi South 13.8 mph - N/A   Clear
7:15 PM 19.4 °F 6.6 °F 15.8 °F 86% 30.04 in 10.0 mi South 12.7 mph - N/A   Scattered Clouds
7:34 PM 19.4 °F 6.6 °F 15.8 °F 86% 30.04 in 10.0 mi South 12.7 mph - N/A   Scattered Clouds
7:54 PM 19.4 °F 6.6 °F 17.6 °F 93% 30.03 in 10.0 mi South 12.7 mph - N/A   Clear
8:15 PM 19.4 °F 6.6 °F 17.6 °F 93% 30.03 in 7.0 mi South 12.7 mph - N/A   Clear
8:34 PM 19.4 °F 6.6 °F 17.6 °F 93% 30.03 in 10.0 mi South 12.7 mph - N/A   Clear
8:54 PM 19.4 °F 7.2 °F 17.6 °F 93% 30.03 in 10.0 mi South 11.5 mph - N/A   Clear
9:15 PM 19.4 °F 6.6 °F 17.6 °F 93% 30.03 in 10.0 mi SSW 12.7 mph - N/A   Clear
9:34 PM 19.4 °F 7.2 °F 17.6 °F 93% 30.03 in 10.0 mi SSW 11.5 mph - N/A   Clear
9:54 PM 19.4 °F 6.6 °F 17.6 °F 93% 30.03 in 10.0 mi SSW 12.7 mph - N/A   Clear
10:15 PM 19.4 °F 8.6 °F 17.6 °F 93% 30.03 in 10.0 mi SSW 9.2 mph - N/A   Clear
10:34 PM 19.4 °F 8.6 °F 17.6 °F 93% 30.03 in 10.0 mi SSW 9.2 mph - N/A   Clear
10:54 PM 19.4 °F 7.2 °F 17.6 °F 93% 30.03 in 10.0 mi SSW 11.5 mph - N/A   Clear
11:14 PM 19.4 °F 8.6 °F 17.6 °F 93% 30.03 in 10.0 mi SSW 9.2 mph - N/A   Clear
11:34 PM 21.2 °F 10.9 °F 17.6 °F 86% 30.03 in 10.0 mi SSW 9.2 mph - N/A   Clear
11:55 PM 21.2 °F 10.9 °F 19.4 °F 93% 30.02 in 7.0 mi SSW 9.2 mph - N/A   Clear